Showing default

COSMOS 2576, 59773

Orbit data source: Space-Track

COSMOS 2576, 59773 is a payload satellite owned by TS VS RF (CIS) in SSO that was launched on Thu, 16 May 2024 UTC via a SOYUZ-2-1B launch vehicle from the Plesetsk Missile And Space Complex (PKMTR). Payload-class satellites include a variety of spacecraft equipped with specific instruments for various scientific and technological missions. These include communications satellites like Starlink; space stations such as the ISS; scientific satellites like the Hubble; Earth observation satellites from companies like Planet Labs, Umbra, and HawkEye 360; GPS; miniature CubeSats for education and research; and military/defense satellites.

Loading next visibility...
Identifier
59773, 2024-092A
Orbit
SSO
Last TLE update
10 hours ago
Origin
Manufacturer
Lavochkin
Mission
Operational spacecraft
Bus & Motor
KARAT-200, Unknown motor
Mass
~500 kg wet, ~500 kg dry
Launch date (UTC)
2024-05-16 (1 year ago)
Launch vehicle
SOYUZ-2-1B
Launch site
Plesetsk Missile And Space Complex (PKMTR)
Object type
Payload
Rocket body
Debris
Shape & HBR
Unknown
Radar Cross Section
Large (>1 m²)

Expand to show TLE details & history

TLE from 10 hours ago
0 COSMOS 2576
1 59773U 24092A   25181.87851831  .00007804  00000-0  30682-3 0  9997
2 59773  97.4146 295.5946 0006422  95.4727 264.7244 15.25922211 62830
Epoch: 2025-06-30T21:05Z
TLE epoch observation values (Epoch: 2025-06-30T21:05:03.981Z)
Latitude
-0.00005°
Longitude
60.14602°
Altitude
491.524 km
Speed
7.619 km/s
True Right ascension
19h 42m 22s
True Declination
0° 00' 00"
Sunlit
Object was in full shadow at epoch
Visualization orbit readout
Latitude
34.61338°
Longitude
-114.31291°
Altitude
489.934 km
Speed
7.625 km/s
Apparent Right ascension
07h 28m 50s
Apparent Declination
-1° 02' 43"
Sunlit
Object is in daylight
Visualization observer readout
Local Sidereal Time
18:47:33
Azimuth
343.813° N
Elevation
-50.009°
Doppler factor
1
Orbital elements
Apogee altitude
489.383 km
Perigee altitude
480.568 km
Semi-major axis
6,863.113 km
Eccentricity
0.00064
Inclination
97.4146°
RAAN
295.5946°
Arg. of periapsis
95.4727°
True anomaly
Unknown
Mean anomaly
264.7244°
Eccentric anomaly
Unknown
Mean motion
3.81735 °/min
Orbital period
94.31 mins
BSTAR
0.00030682
Loading maneuver chart data...
Loading SW <> Apogee altitude chart data...
Loading historical data...
Loading historical data...
Loading historical data...
Loading historical data...
Loading historical data...
Loading historical data...
Loading historical data...

COSMOS 2576 Visibility forecast

Observer location: undefined°, undefined°

Span
Click to sort rows by Start time (UTC) header in descending order
Start Az.
Max El. time (UTC)
Max El. Az.
Max El.
End time (UTC)
End Az.
5 mins2025-07-01 08:13:38.654Z205.462° SW2025-07-01 08:16:38.654Z273.829° WNW25.354°2025-07-01 08:18:38.654Z316.871° NNW
4 mins2025-07-01 19:42:38.654Z64.442° ENE2025-07-01 19:43:38.654Z86.061° E19.077°2025-07-01 19:46:38.654Z144.181° SSE
|